This is the latest recevied weather packets stored in our database for station/object N8AMF. If no packets are shown the sender has not sent any weather packets the latest 10 day(s).
| Time | Temp. | Humidity | Pressure | Rain* | Wind** | Luminosity | Snow |
|---|---|---|---|---|---|---|---|
| 1777999697 | 17.78° C | 70% | 1006.5 hPa | 0 mm | - | 211 W/m² | - |
| 1777999394 | 17.78° C | 69% | 1006.6 hPa | 0 mm | - | 127 W/m² | - |
| 1777999092 | 18.33° C | 68% | 1006.4 hPa | 0 mm | - | 175 W/m² | - |
| 1777998791 | 18.33° C | 67% | 1006.4 hPa | 0 mm | - | 282 W/m² | - |
| 1777998489 | 18.33° C | 68% | 1006.3 hPa | 0 mm | - | 137 W/m² | - |
| 1777998184 | 18.33° C | 67% | 1006.4 hPa | 0 mm | - | 114 W/m² | - |
| 1777997882 | 18.33° C | 67% | 1006.3 hPa | 0 mm | - | 120 W/m² | - |
| 1777997579 | 18.33° C | 67% | 1006.3 hPa | 0 mm | - | 101 W/m² | - |
| 1777997276 | 18.33° C | 66% | 1006.5 hPa | 0 mm | - | 101 W/m² | - |
| 1777996974 | 18.33° C | 66% | 1006.4 hPa | 0 mm | - | 76 W/m² | - |
| 1777996670 | 18.89° C | 65% | 1006.1 hPa | 0 mm | - | 67 W/m² | - |
| 1777996366 | 18.89° C | 64% | 1006.2 hPa | 0 mm | - | 92 W/m² | - |
| 1777996063 | 18.89° C | 64% | 1006.1 hPa | 0 mm | - | 141 W/m² | - |
| 1777995759 | 18.89° C | 64% | 1006 hPa | 0 mm | - | 183 W/m² | - |
| 1777995456 | 20° C | 62% | 1006 hPa | 0 mm | - | 216 W/m² | - |
| 1777995153 | 20.56° C | 61% | 1005.9 hPa | 0 mm | - | 357 W/m² | - |
| 1777994850 | 20° C | 62% | 1005.7 hPa | 0 mm | - | 594 W/m² | - |
| 1777994546 | 20.56° C | 63% | 1005.6 hPa | 0 mm | - | 668 W/m² | - |
| 1777994240 | 20.56° C | 62% | 1005.5 hPa | 0 mm | - | 711 W/m² | - |
| 1777993938 | 20° C | 62% | 1005.2 hPa | 0 mm | - | 580 W/m² | - |
| 1777993635 | 20° C | 61% | 1005 hPa | 0 mm | - | 396 W/m² | - |
| 1777993332 | 20° C | 63% | 1005 hPa | 0 mm | - | 587 W/m² | - |
| 1777993032 | 20° C | 61% | 1005 hPa | 0 mm | - | 617 W/m² | - |
| 1777992731 | 19.44° C | 62% | 1004.8 hPa | 0 mm | - | 652 W/m² | - |
| 1777992428 | 19.44° C | 62% | 1005 hPa | 0 mm | - | 318 W/m² | - |
* Rain latest hour (hover to see other rain measurements)
** Current wind speed in m/s (hover to see current wind gust speed)